Location: Eboldshausen
(51.7766°N, 10.0050°E)
Time: 04:27:48
(UTC+00:00)

SJ-12 - Visible Passes

Search period start: 19 February 2026 00:00
Search period end: 01 March 2026 00:00
Orbit: 514 x 525 km, 97.8° (Epoch: 18 February)

Date Brightness Start Highest point End Pass type
(mag) Time Alt. Az. Time Alt. Az. Time Alt. Az.
19 Feb 7.3 05:00:46 10° ENE 05:02:44 14° E 05:04:40 10° ESE visible
19 Feb 4.5 17:19:13 10° S 17:22:56 57° WSW 17:26:42 10° NNW visible
21 Feb 7.3 18:28:34 10° WSW 18:30:12 12° W 18:31:50 10° WNW visible
22 Feb 7.0 18:13:52 10° SW 18:16:22 17° W 18:18:53 10° NW visible
23 Feb 5.9 05:39:04 10° NNE 05:42:30 32° E 05:45:54 10° SSE visible
23 Feb 6.5 17:59:32 10° SSW 18:02:33 23° W 18:05:36 10° NW visible
24 Feb 6.6 05:25:38 10° NE 05:28:43 23° E 05:31:47 10° SSE visible
24 Feb 5.9 17:45:23 10° SSW 17:48:46 31° W 17:52:11 10° NNW visible
25 Feb 7.1 05:12:19 10° NE 05:14:53 17° E 05:17:28 10° SE visible
25 Feb 5.2 17:31:24 10° S 17:35:00 43° W 17:38:38 10° NNW visible
26 Feb 7.4 04:59:17 10° ENE 05:01:02 13° E 05:02:47 10° ESE visible
28 Feb 7.3 18:26:28 10° WSW 18:28:18 13° W 18:30:09 10° WNW visible
